Back to catalog

COSMOS 1275 DEB

AlivePO
NORAD 17614·DEBRIS·🇷🇺 Russia

Launched Jun 4, 1981 from Plesetsk Cosmodrome

Loading…

Next Passes (next 24 hours)

TLE

FreshSource: Space-Track

Epoch: Sep 13, 2026, 18:00 UTC

1 17614U 81053KH  26256.75067560  .00001322  00000-0  72402-3 0  9999
2 17614  82.7862 356.3346 0044455 132.8606  19.5902 14.10725613100199

Track COSMOS 1275 DEB in real time with AllMySat

Download on the App Store